Location: *
(51.8167°N, 12.5000°E)
Time: 07:45:34
(UTC+00:00)

SL-8 Rocket - Pass Details

Date: 16 September 2019
Orbit: 956 x 991 km, 82.9° (Epoch: 14 October)

Event Time Altitude Azimuth Distance (km) Brightness Sun altitude
Rises 19:51:39 0° 347° (NNW) 3,680 7.8 -22.1°
Reaches altitude 10° 19:54:13 10° 344° (NNW) 2,724 7.0 -22.4°
Maximum altitude 20:00:17 58° 267° (W) 1,121 4.5 -23.2°
Enters shadow 20:04:44 19° 195° (SSW) 2,133 5.5 -23.7°
